Погода в Омолоне

Погода в Омолоне : погода сейчас, прогноз погоды и архив. Всё, что Вы хотите узнать о погоде в Омолоне!

Поиск расширенной информации на нашем сайте:

Другие новости

Новости СМИ2

Главная страница сайта

Новости сайта

03.07.2017

Напоминаем, что на нашем специализированном сайте Метеоцентр.Азия вы можете получить высокодетализированные автоматические прогнозы погоды по пунктам России, СНГ и мира в авиационном формате (включающие направление и скорость ветра, видимость, явления погоды, количество и форму облачности, нижнюю и верхнюю границу облачности).


Погода в Омолоне - сегодня

Время (UTC), дата Ветер
(°,м/с) 
Видим.   Явления Облачность Т
(°С)
Тd
(°С)
f(%) Тe
(°С)
Pmin
(гПа)
dP
(гПа)
Po
(мм)
O2
(г/м3)
Тmin Tmax R s Состояние
почвы
03 13.08.18 050 (СВ) 2{06}  50000 м    8/0 верхняя 
[Cs]
+18.2 +1.7 33 +19  1012.7  0.4  737  278           
06 13.08.18 150 (ЮВ) 1{04}  50000 м    4/0 верхняя 
[Cs]
+19.1 -0.3 27 +21  1012.8  0.2  737  278           
12 13.08.18 260 (З) 1{02}  50000 м    ясно 
+3.7 +2.9 94 +5  1017.3  1.7  739  293           
15 13.08.18 тихо () {00}  50000 м    ясно 
+0 -0.2 99 1019.4  1.6  740  298           
18 13.08.18 тихо () {01}  50000 м    ясно 
+0 -0.3 98 1021.2  1.8  742  299           
03 14.08.18 170 (Ю) 2{04}  50000 м    3/1 600 м верхняя 
[Cu hum|Ci fib]
+21.2 +2 28 +21  1020.7  743  277           
06 14.08.18 050 (СВ) 1{04}  50000 м    3/1 600 м верхняя 
[Cu hum|Ci fib]
+21.5 -0.5 23 +22  1020.7  743  277           
12 14.08.18 тихо () {02}  50000 м    1/0 верхняя 
[Ci fib]
+4.7 +3.8 94 +5  1024.3  1.2  744  294           
15 14.08.18 150 (ЮВ) 1{02}  50000 м    1/0 верхняя 
[Ci fib]
+0.4 +0.1 98 +1  1026  745  300           
18 14.08.18 160 (Ю) 1{03}  50000 м    3/0 средняя, верхняя 
[Ac trans|Ci fib]
-0.7 -0.8 99 1027  0.9  746  301           
03 15.08.18 240 (ЮЗ) 1{03}  50000 м    5/1 1000 м верхняя 
[Cu hum|Ci fib]
+22.6 +0.9 24 +23  1021.7  -2.2  744  277           
06 15.08.18 230 (ЮЗ) 1{03}  50000 м    4/1 1000 м верхняя 
[Cu hum|Ci fib]
+23.5 +1.8 24 +24  1019.6  -2  742  275           
12 15.08.18 110 (В) 2{03}  50000 м    3/0 верхняя 
[Ci fib]
+6.3 +4 85 +6  1020  -0.3  741  291           
15 15.08.18 тихо () {03}  50000 м    4/0 верхняя 
[Ci fib]
+1.6 +1 96 +2  1020.3  -0.3  741  297           
18 15.08.18 тихо () {02}  50000 м    3/0 верхняя 
[Ci fib]
-0.1 -0.4 98 -0  1019.9  -0.5  741  299           
03 16.08.18 200 (Ю) 3{07}  50000 м    3/0 верхняя 
[Ci fib]
+23.3 +3.2 27 +23  1012  -2.6  737  273           
06 16.08.18 250 (З) 3{07}  50000 м    8/0 верхняя 
[Ci fib]
+23.7 +1.3 23 +24  1009.8  -2  735  272           
12 16.08.18 180 (Ю) 1{02}  50000 м    8/0 верхняя 
[Ci fib]
+6.4 +5.7 95 +7  1010.6  734  288           
15 16.08.18 110 (В) 2{04}  50000 м    8/0 верхняя 
[Ci fib]
+5.7 +3.4 85 +5  1010.4  -0.2  734  289           
18 16.08.18 090 (В) 1{03}  50000 м    10/0 верхняя 
[Ci fib]
+2.8 +2 94 +4  1010.7  -0.1  734  292           
03 17.08.18 140 (ЮВ) 4{09}  50000 м    8/0 средняя, верхняя 
[Ac trans|Ci fib]
+22 +4.1 31 +22  1004.6  -1.7  731  272           
06 17.08.18 150 (ЮВ) 3{09}  50000 м    10/0 средняя, верхняя 
[Ac trans|Ci fib]
+21.2 +5.1 35 +21  1003.9  -0.7  731  272           
12 17.08.18 250 (З) 2{03}  50000 м    10/5 1000 м средняя, верхняя 
[Sc|Ac trans|Ci fib]
+8.1 +5.9 86 +8  1007.6  1.6  732  286           
15 17.08.18 100 (В) 1{03}  22000 м  слаб. ливневой дождь  10/8 600 м кучево-дожд., средняя 
[Cb cap|Ac und]
+8.7 +6.8 88 +10  1009.4  1.8  734  285           
18 17.08.18 100 (В) 1{02}  22000 м  слаб. ливневой дождь  10/8 600 м кучево-дожд., средняя 
[Cb cap|Ac und]
+8.3 +7.4 94 +9  1010.8  1.3  735  286           
Время (UTC), дата Ветер
(°,м/с) 
Видим.   Явления Облачность Т
(°С)
Тd
(°С)
f(%) Тe
(°С)
Pmin
(гПа)
dP
(гПа)
Po
(мм)
O2
(г/м3)
Тmin Tmax R s Состояние
почвы

Для получения пояснительной информации подведите курсор к названию столбца.

ПОГОДА в Омолоне - архив

Всё, что Вы хотите узнать о погоде в Омолоне - удобно и подробно!

Выберите нужную дату (начиная с 1 января 2015* года) и нажмите кнопку "Найти".
Будут отображены архивные сводки погоды по пункту Омолон, начиная с указанной даты.


Отображать данные в формате CSV (для использования в таблицах Excel)


Внимание! Наш архив погоды предназначен исключительно для личного некоммерческого использования в познавательных целях. Если Вам необходимы официальные справки о состоянии погоды (для производственных, юридических, коммерческих и т.п. целей), обращайтесь в органы Росгидромета.

*Примечание: данная дата относится к архиву по метеостанциям СССР (Россия, СНГ, Балтия).
Архив по метеостанциям Зарубежной Европы и Азии (кроме Китая) хранится 10 дней, по другим регионам земного шара (Китай, Африка, Америка, Австралия, Океания) - 1 день.

Омолон - район местоположения метеостанции


Название, широта, долгота, высота метеостанции:
Омолон 65.2°ш. 160.5°д. 264 м над ур. моря [Российская Федерация]

Дополнительная информация

В oтличие oт бoльшинства пoгoдных сайтoв мы публикуем пoдрoбную метеoинфoрмацию в детальнoм прoфессиoнальнoм фoрмате.

Характеристики температуры и влажнoсти вoздуха измеряются на высoте 2 м в тени вдали oт зданий и деревьев.
Скoрoсть ветра измеряется на высoте 10 м (на урoвне рoста челoвека скoрoсть ветра ниже в 1.5-2 раза). Если метеoстанция нахoдится в гoрoде или в лесу, тo скoрoсть ветра занижена на 2-4 м/с пo сравнению с oткрытым местoм. Скoрoсть ветра над акватoриями крупных рек и oзёр, а также на вершинах хoлмoв на 2-5 м/с выше, чем в oбычных услoвиях.
Атмoсфернoе давление в разных тoчках местнoсти мoжет значительнo oтличаться oт давления на метеoстанции, в зависимoсти oт услoвий рельефа (при пoдъёме на 10 м давление пoнижается примернo на 1 мм рт.ст.).